Regional Weather Roundup
Issued by NWS Sioux Falls, SD

Home | Current Version | Previous Version | Text Only | Print | Product List | Glossary On
Versions: 1 2 3 4 5 6 7 8 9 10 11 12 13 14 15 16 17 18 19 20 21 22 23 24 25 26 27 28 29 30 31 32 33 34 35 36 37 38 39 40 41 42 43 44 45 46 47 48 49 50
000
ASUS43 KFSD 200902
RWRFSD

WEATHER ROUNDUP FOR SE SOUTH DAKOTA/SW MINNESOTA/NW IOWA
NATIONAL WEATHER SERVICE SIOUX FALLS SD
400 AM CDT SUN AUG 20 2017

NOTE: "FAIR" INDICATES FEW OR NO CLOUDS BELOW 12,000 FEET WITH NO
SIGNIFICANT WEATHER AND OR OBSTRUCTIONS TO VISIBILITY.


SDZ038>040-050-052>070-201000-
SOUTHEAST SOUTH DAKOTA

CITY           SKY/WX    TMP DP  RH WIND       PRES   REMARKS
BROOKINGS      CLOUDY    65  62  90 SE6       29.86R
CHAMBERLAIN    CLEAR     66  66 100 NW10      29.89R
HURON          CLEAR     62  62 100 CALM      29.84R
MADISON        FAIR      68  64  88 S9G16     29.86R
MITCHELL       CLEAR     65  63  93 S5        29.85R
SIOUX FALLS    CLOUDY    72  63  73 S9        29.85R
WINNER         FAIR      66  62  87 S6        29.88R
YANKTON        CLOUDY    68  63  84 SE8       29.84S
$$

MNZ071-072-080-081-089-090-097-098-201000-
SOUTHWEST MINNESOTA

CITY           SKY/WX    TMP DP  RH WIND       PRES   REMARKS
FAIRMONT       CLOUDY    67  64  90 S8        29.87S
JACKSON        CLOUDY    66  63  88 CALM      29.87F
LUVERNE        CLOUDY    63  61  94 CALM      29.86R
MARSHALL       CLOUDY    65  63  93 S3        29.84R
MONTEVIDEO     CLOUDY    63  63 100 S5        29.84R
PIPESTONE      CLOUDY    66  63  88 CALM      29.87R
REDWOOD FALLS  CLOUDY    65  63  93 CALM      29.85R
TRACY          CLOUDY    66  65  96 CALM      29.86R
WINDOM         CLOUDY    66  63  88 SE5       29.86S
WORTHINGTON    CLOUDY    70  62  76 S13       29.86F
$$

IAZ001>003-012>014-020>022-031-032-NEZ013-014-SDZ071-201000-
NORTHWEST IOWA

CITY           SKY/WX    TMP DP  RH WIND       PRES   REMARKS
CHEROKEE       CLOUDY    70  64  81 SW6       29.84F
DENISON        DRIZZLE   72  59  64 S21G29    29.84S
ESTHERVILLE    CLOUDY    65  65 100 S3        29.85F
LE MARS        CLOUDY   102 N/A N/A SW3       29.85R
ORANGE CITY    CLOUDY    72  66  83 SW6       29.87R
SHELDON        CLOUDY    72  64  78 S12G18    29.85R
SIOUX CITY     CLOUDY    71  64  78 CALM      29.85R
SPENCER        CLOUDY    71  63  75 S5        29.86F
STORM LAKE     CLOUDY    70  63  78 SW10      29.85S
$$

ABBREVIATIONS USED IN REMARKS
   TC - TEMPERATURE IN CELSIUS
  WCI - WIND CHILL INDEX
   HX - HEAT INDEX
  VSB - VISIBILITY




USA.gov is the U.S. government's official web portal to all federal, state and local government web resources and services.